Time,TemperatureF,DewpointF,PressureIn,WindDirection,WindDirectionDegrees,WindSpeedMPH,WindSpeedGustMPH,Humidity,HourlyPrecipIn,Conditions,Clouds,dailyrainin,SoftwareType,DateUTC
2013-04-29 00:00:00,58.5,57.9,29.23,NW,315,0.0,0.0,98,0.00,,OVC240,0.00,VWS V14.01,2013-04-29 05:00:00,
2013-04-29 00:17:00,58.5,57.9,29.23,NW,315,0.0,0.0,98,0.00,,OVC240,0.00,VWS V14.01,2013-04-29 05:17:00,
2013-04-29 00:20:00,58.5,57.9,29.23,NW,315,0.0,0.0,98,0.00,,OVC240,0.00,VWS V14.01,2013-04-29 05:20:00,
2013-04-29 00:27:00,58.5,57.9,29.23,WNW,292,2.9,2.9,98,0.00,,OVC240,0.00,VWS V14.01,2013-04-29 05:27:00,
2013-04-29 00:30:00,58.5,57.9,29.23,WNW,292,2.9,2.9,98,0.00,,OVC240,0.00,VWS V14.01,2013-04-29 05:30:00,
2013-04-29 00:37:00,58.6,58.1,29.23,WNW,292,0.9,2.0,98,0.00,,OVC240,0.00,VWS V14.01,2013-04-29 05:37:00,
2013-04-29 00:40:00,58.6,58.1,29.23,WNW,292,0.9,2.0,98,0.00,,OVC240,0.00,VWS V14.01,2013-04-29 05:40:00,
2013-04-29 00:47:00,58.8,58.3,29.23,West,270,1.6,1.6,98,0.00,,OVC240,0.00,VWS V14.01,2013-04-29 05:47:00,
2013-04-29 00:50:00,58.8,58.3,29.23,West,270,1.6,1.6,98,0.00,,OVC240,0.00,VWS V14.01,2013-04-29 05:50:00,
2013-04-29 00:57:00,58.6,58.1,29.23,West,270,1.6,1.6,98,0.00,,OVC240,0.00,VWS V14.01,2013-04-29 05:57:00,
2013-04-29 01:00:00,58.6,58.1,29.23,West,270,1.6,1.6,98,0.00,,OVC240,0.00,VWS V14.01,2013-04-29 06:00:00,
2013-04-29 01:07:00,58.8,58.3,29.23,NW,315,1.1,1.3,98,0.00,,OVC240,0.00,VWS V14.01,2013-04-29 06:07:00,
2013-04-29 01:10:00,58.8,58.3,29.23,NW,315,1.1,1.3,98,0.00,,OVC240,0.00,VWS V14.01,2013-04-29 06:10:00,
2013-04-29 01:17:00,58.8,58.3,29.23,WNW,292,1.6,2.5,98,0.00,,OVC240,0.00,VWS V14.01,2013-04-29 06:17:00,
2013-04-29 01:20:00,58.8,58.3,29.23,WNW,292,1.6,2.5,98,0.00,,OVC240,0.00,VWS V14.01,2013-04-29 06:20:00,
2013-04-29 01:27:00,58.8,58.3,29.20,NW,315,1.3,2.2,98,0.00,,OVC240,0.00,VWS V14.01,2013-04-29 06:27:00,
2013-04-29 01:30:00,58.8,58.3,29.20,NW,315,1.3,2.2,98,0.00,,OVC240,0.00,VWS V14.01,2013-04-29 06:30:00,
2013-04-29 01:37:00,58.8,58.3,29.20,NW,315,1.3,1.3,98,0.00,,OVC240,0.00,VWS V14.01,2013-04-29 06:37:00,
2013-04-29 01:40:00,58.8,58.3,29.20,NW,315,1.3,1.3,98,0.00,,OVC240,0.00,VWS V14.01,2013-04-29 06:40:00,
2013-04-29 01:48:00,58.8,58.3,29.23,NW,315,2.0,2.0,98,0.00,,OVC240,0.00,VWS V14.01,2013-04-29 06:48:00,
2013-04-29 01:50:00,58.8,58.3,29.23,NW,315,2.0,2.0,98,0.00,,OVC240,0.00,VWS V14.01,2013-04-29 06:50:00,
2013-04-29 01:57:00,58.6,58.1,29.20,WNW,292,0.0,0.0,98,0.00,,OVC240,0.00,VWS V14.01,2013-04-29 06:57:00,
2013-04-29 02:00:00,58.6,58.1,29.20,WNW,292,0.0,0.0,98,0.00,,OVC240,0.00,VWS V14.01,2013-04-29 07:00:00,
2013-04-29 02:07:00,58.5,57.9,29.20,West,270,0.0,0.0,98,0.00,,OVC240,0.00,VWS V14.01,2013-04-29 07:07:00,
2013-04-29 02:10:00,58.5,57.9,29.20,West,270,0.0,0.0,98,0.00,,OVC240,0.00,VWS V14.01,2013-04-29 07:10:00,
2013-04-29 02:17:00,58.5,57.9,29.20,West,270,0.0,0.0,98,0.00,,OVC240,0.00,VWS V14.01,2013-04-29 07:17:00,
2013-04-29 02:20:00,58.5,57.9,29.20,West,270,0.0,0.0,98,0.00,,OVC240,0.00,VWS V14.01,2013-04-29 07:20:00,
2013-04-29 02:27:00,58.5,57.9,29.23,WNW,292,1.1,2.0,98,0.00,,OVC240,0.00,VWS V14.01,2013-04-29 07:27:00,
2013-04-29 02:30:00,58.5,57.9,29.23,WNW,292,1.1,2.0,98,0.00,,OVC240,0.00,VWS V14.01,2013-04-29 07:30:00,
2013-04-29 02:37:00,58.5,57.9,29.23,WNW,292,0.0,0.0,98,0.00,,OVC240,0.00,VWS V14.01,2013-04-29 07:37:00,
2013-04-29 02:40:00,58.5,57.9,29.23,WNW,292,0.0,0.0,98,0.00,,OVC240,0.00,VWS V14.01,2013-04-29 07:40:00,
2013-04-29 02:48:00,58.5,57.9,29.23,NW,315,0.0,0.0,98,0.00,,OVC240,0.00,VWS V14.01,2013-04-29 07:48:00,
2013-04-29 02:50:00,58.5,57.9,29.23,NW,315,0.0,0.0,98,0.00,,OVC240,0.00,VWS V14.01,2013-04-29 07:50:00,
2013-04-29 02:58:00,58.3,57.7,29.23,WNW,292,0.0,0.0,98,0.00,,OVC240,0.00,VWS V14.01,2013-04-29 07:58:00,
2013-04-29 03:00:00,58.3,57.7,29.23,WNW,292,0.0,0.0,98,0.00,,OVC240,0.00,VWS V14.01,2013-04-29 08:00:00,
2013-04-29 03:07:00,58.3,57.7,29.23,WNW,292,0.0,0.0,98,0.00,,OVC240,0.00,VWS V14.01,2013-04-29 08:07:00,
2013-04-29 03:10:00,58.3,57.7,29.23,WNW,292,0.0,0.0,98,0.00,,OVC240,0.00,VWS V14.01,2013-04-29 08:10:00,
2013-04-29 03:17:00,58.3,57.7,29.20,North,0,0.0,1.1,98,0.00,,OVC240,0.00,VWS V14.01,2013-04-29 08:17:00,
2013-04-29 03:20:00,58.3,57.7,29.20,North,0,0.0,1.1,98,0.00,,OVC240,0.00,VWS V14.01,2013-04-29 08:20:00,
2013-04-29 03:28:00,58.3,57.7,29.23,NW,315,0.0,0.0,98,0.00,,OVC240,0.00,VWS V14.01,2013-04-29 08:28:00,
2013-04-29 03:30:00,58.3,57.7,29.23,NW,315,0.0,0.0,98,0.00,,OVC240,0.00,VWS V14.01,2013-04-29 08:30:00,
2013-04-29 03:37:00,58.1,57.5,29.23,NW,315,0.0,0.0,98,0.00,,OVC240,0.00,VWS V14.01,2013-04-29 08:37:00,
2013-04-29 03:40:00,58.1,57.5,29.23,NW,315,0.0,0.0,98,0.00,,OVC240,0.00,VWS V14.01,2013-04-29 08:40:00,
2013-04-29 03:47:00,58.1,57.5,29.23,NW,315,0.0,0.0,98,0.00,,OVC240,0.00,VWS V14.01,2013-04-29 08:47:00,
2013-04-29 03:50:00,58.1,57.5,29.23,NW,315,0.0,0.0,98,0.00,,OVC240,0.00,VWS V14.01,2013-04-29 08:50:00,
2013-04-29 03:57:00,58.1,57.5,29.23,NW,315,0.0,0.0,98,0.00,,OVC240,0.00,VWS V14.01,2013-04-29 08:57:00,
2013-04-29 04:00:00,58.1,57.5,29.23,NW,315,0.0,0.0,98,0.00,,OVC240,0.00,VWS V14.01,2013-04-29 09:00:00,
2013-04-29 04:07:00,57.9,57.4,29.23,NW,315,0.0,0.0,98,0.00,,OVC240,0.00,VWS V14.01,2013-04-29 09:07:00,
2013-04-29 04:10:00,57.9,57.4,29.23,NW,315,0.0,0.0,98,0.00,,OVC240,0.00,VWS V14.01,2013-04-29 09:10:00,
2013-04-29 04:17:00,57.9,57.4,29.23,NW,315,0.0,0.0,98,0.00,,OVC240,0.00,VWS V14.01,2013-04-29 09:17:00,
2013-04-29 04:20:00,57.9,57.4,29.23,NW,315,0.0,0.0,98,0.00,,OVC240,0.00,VWS V14.01,2013-04-29 09:20:00,
2013-04-29 04:27:00,57.9,57.4,29.23,NW,315,0.0,0.0,98,0.00,,OVC240,0.00,VWS V14.01,2013-04-29 09:27:00,
2013-04-29 04:30:00,57.9,57.4,29.23,NW,315,0.0,0.0,98,0.00,,OVC240,0.00,VWS V14.01,2013-04-29 09:30:00,
2013-04-29 04:58:00,57.9,57.4,29.23,NW,315,0.0,0.0,98,0.00,,OVC240,0.00,VWS V14.01,2013-04-29 09:58:00,
2013-04-29 05:00:00,57.9,57.4,29.23,NW,315,0.0,0.0,98,0.00,,OVC240,0.00,VWS V14.01,2013-04-29 10:00:00,
2013-04-29 05:07:00,57.7,57.2,29.23,NW,315,0.0,0.0,98,0.00,,OVC240,0.00,VWS V14.01,2013-04-29 10:07:00,
2013-04-29 05:10:00,57.7,57.2,29.23,NW,315,0.0,0.0,98,0.00,,OVC240,0.00,VWS V14.01,2013-04-29 10:10:00,
2013-04-29 05:18:00,57.7,57.2,29.23,NW,315,0.0,0.0,98,0.00,,OVC240,0.00,VWS V14.01,2013-04-29 10:18:00,
2013-04-29 05:20:00,57.7,57.2,29.23,NW,315,0.0,0.0,98,0.00,,OVC240,0.00,VWS V14.01,2013-04-29 10:20:00,
2013-04-29 05:37:00,57.6,57.0,29.26,NW,315,0.0,0.0,98,0.00,,OVC240,0.00,VWS V14.01,2013-04-29 10:37:00,
2013-04-29 05:40:00,57.6,57.0,29.26,NW,315,0.0,0.0,98,0.00,,OVC240,0.00,VWS V14.01,2013-04-29 10:40:00,
2013-04-29 05:47:00,57.6,57.0,29.26,NW,315,0.0,0.0,98,0.00,,OVC240,0.00,VWS V14.01,2013-04-29 10:47:00,
2013-04-29 05:50:00,57.6,57.0,29.26,NW,315,0.0,0.0,98,0.00,,OVC240,0.00,VWS V14.01,2013-04-29 10:50:00,
2013-04-29 05:57:00,57.2,56.6,29.26,NW,315,0.0,0.0,98,0.00,,OVC240,0.00,VWS V14.01,2013-04-29 10:57:00,
2013-04-29 06:00:00,57.2,56.6,29.26,NW,315,0.0,0.0,98,0.00,,OVC240,0.00,VWS V14.01,2013-04-29 11:00:00,
2013-04-29 06:07:00,57.4,56.8,29.26,NW,315,0.0,0.0,98,0.00,,OVC240,0.00,VWS V14.01,2013-04-29 11:07:00,
2013-04-29 06:10:00,57.4,56.8,29.26,NW,315,0.0,0.0,98,0.00,,OVC240,0.00,VWS V14.01,2013-04-29 11:10:00,
2013-04-29 06:17:00,57.4,56.8,29.26,NW,315,0.0,0.0,98,0.00,,OVC240,0.00,VWS V14.01,2013-04-29 11:17:00,
2013-04-29 06:20:00,57.4,56.8,29.26,NW,315,0.0,0.0,98,0.00,,OVC240,0.00,VWS V14.01,2013-04-29 11:20:00,
2013-04-29 06:27:00,57.6,57.0,29.26,NW,315,0.0,0.0,98,0.00,,OVC240,0.00,VWS V14.01,2013-04-29 11:27:00,
2013-04-29 06:30:00,57.6,57.0,29.26,NW,315,0.0,0.0,98,0.00,,OVC240,0.00,VWS V14.01,2013-04-29 11:30:00,
2013-04-29 06:38:00,57.9,57.4,29.26,WNW,292,0.0,0.0,98,0.00,,OVC240,0.00,VWS V14.01,2013-04-29 11:38:00,
2013-04-29 06:40:00,57.9,57.4,29.26,WNW,292,0.0,0.0,98,0.00,,OVC240,0.00,VWS V14.01,2013-04-29 11:40:00,
2013-04-29 06:47:00,59.0,58.4,29.26,WNW,292,0.0,0.0,98,0.00,,OVC240,0.00,VWS V14.01,2013-04-29 11:47:00,
2013-04-29 06:50:00,59.0,58.4,29.26,WNW,292,0.0,0.0,98,0.00,,OVC240,0.00,VWS V14.01,2013-04-29 11:50:00,
2013-04-29 06:57:00,58.8,58.3,29.26,ESE,112,0.0,0.0,98,0.00,,OVC240,0.00,VWS V14.01,2013-04-29 11:57:00,
2013-04-29 07:00:00,58.8,58.3,29.26,ESE,112,0.0,0.0,98,0.00,,OVC240,0.00,VWS V14.01,2013-04-29 12:00:00,
2013-04-29 07:07:00,59.2,58.6,29.26,West,270,0.0,0.0,98,0.00,,OVC240,0.00,VWS V14.01,2013-04-29 12:07:00,
2013-04-29 07:10:00,59.2,58.6,29.26,West,270,0.0,0.0,98,0.00,,OVC240,0.00,VWS V14.01,2013-04-29 12:10:00,
2013-04-29 07:27:00,59.7,59.2,29.26,SE,135,2.9,2.9,98,0.00,,OVC240,0.00,VWS V14.01,2013-04-29 12:27:00,
2013-04-29 07:30:00,59.7,59.2,29.26,SE,135,2.9,2.9,98,0.00,,OVC240,0.00,VWS V14.01,2013-04-29 12:30:00,
2013-04-29 07:37:00,59.7,59.2,29.26,West,270,1.6,1.6,98,0.00,,OVC240,0.00,VWS V14.01,2013-04-29 12:37:00,
2013-04-29 07:40:00,59.7,59.2,29.26,West,270,1.6,1.6,98,0.00,,OVC240,0.00,VWS V14.01,2013-04-29 12:40:00,
2013-04-29 07:48:00,59.7,59.2,29.26,SW,225,1.3,2.5,98,0.00,,OVC240,0.00,VWS V14.01,2013-04-29 12:48:00,
2013-04-29 07:50:00,59.7,59.2,29.26,SW,225,1.3,2.5,98,0.00,,OVC240,0.00,VWS V14.01,2013-04-29 12:50:00,
2013-04-29 07:57:00,60.1,58.9,29.26,West,270,2.7,2.7,96,0.00,,OVC240,0.00,VWS V14.01,2013-04-29 12:57:00,
2013-04-29 08:00:00,60.1,58.9,29.26,West,270,2.7,2.7,96,0.00,,OVC240,0.00,VWS V14.01,2013-04-29 13:00:00,
2013-04-29 08:07:00,60.6,59.5,29.26,West,270,0.9,0.9,96,0.00,,OVC240,0.00,VWS V14.01,2013-04-29 13:07:00,
2013-04-29 08:10:00,60.6,59.5,29.26,West,270,0.9,0.9,96,0.00,,OVC240,0.00,VWS V14.01,2013-04-29 13:10:00,
2013-04-29 08:17:00,60.8,59.1,29.26,SE,135,2.2,2.2,94,0.00,,OVC240,0.00,VWS V14.01,2013-04-29 13:17:00,
2013-04-29 08:20:00,60.8,59.1,29.26,SE,135,2.2,2.2,94,0.00,,OVC240,0.00,VWS V14.01,2013-04-29 13:20:00,
2013-04-29 08:27:00,61.3,59.6,29.26,NW,315,1.6,1.6,94,0.00,,OVC240,0.00,VWS V14.01,2013-04-29 13:27:00,
2013-04-29 08:30:00,61.3,59.6,29.26,NW,315,1.6,1.6,94,0.00,,OVC240,0.00,VWS V14.01,2013-04-29 13:30:00,
2013-04-29 08:38:00,62.2,60.2,29.26,SE,135,2.9,2.9,93,0.00,,OVC240,0.00,VWS V14.01,2013-04-29 13:38:00,
2013-04-29 08:40:00,62.2,60.2,29.26,SE,135,2.9,2.9,93,0.00,,OVC240,0.00,VWS V14.01,2013-04-29 13:40:00,
2013-04-29 08:47:00,63.0,59.7,29.26,SE,135,4.3,4.3,89,0.00,,OVC240,0.00,VWS V14.01,2013-04-29 13:47:00,
2013-04-29 08:50:00,63.0,59.7,29.26,SE,135,4.3,4.3,89,0.00,,OVC240,0.00,VWS V14.01,2013-04-29 13:50:00,
2013-04-29 08:57:00,63.5,60.2,29.26,SE,135,2.5,2.5,89,0.00,,OVC240,0.00,VWS V14.01,2013-04-29 13:57:00,
2013-04-29 09:00:00,63.5,60.2,29.26,SE,135,2.5,2.5,89,0.00,,OVC240,0.00,VWS V14.01,2013-04-29 14:00:00,
2013-04-29 09:07:00,63.5,59.2,29.26,SE,135,4.3,4.3,86,0.00,,OVC240,0.00,VWS V14.01,2013-04-29 14:07:00,
2013-04-29 09:10:00,63.5,59.2,29.26,SE,135,4.3,4.3,86,0.00,,OVC240,0.00,VWS V14.01,2013-04-29 14:10:00,
2013-04-29 09:17:00,63.5,58.6,29.26,SE,135,3.6,4.3,84,0.00,,OVC240,0.00,VWS V14.01,2013-04-29 14:17:00,
2013-04-29 09:20:00,63.5,58.6,29.26,SE,135,3.6,4.3,84,0.00,,OVC240,0.00,VWS V14.01,2013-04-29 14:20:00,
2013-04-29 09:27:00,63.7,59.4,29.26,ESE,112,3.1,3.1,86,0.00,,OVC240,0.00,VWS V14.01,2013-04-29 14:27:00,
2013-04-29 09:30:00,63.7,59.4,29.26,ESE,112,3.1,3.1,86,0.00,,OVC240,0.00,VWS V14.01,2013-04-29 14:30:00,
2013-04-29 09:37:00,63.9,59.6,29.26,SW,225,1.6,2.7,86,0.00,,OVC240,0.00,VWS V14.01,2013-04-29 14:37:00,
2013-04-29 09:40:00,63.9,59.6,29.26,SW,225,1.6,2.7,86,0.00,,OVC240,0.00,VWS V14.01,2013-04-29 14:40:00,
2013-04-29 09:47:00,64.0,59.5,29.29,East,90,0.0,1.6,85,0.00,,OVC240,0.00,VWS V14.01,2013-04-29 14:47:00,
2013-04-29 09:50:00,64.0,59.5,29.29,East,90,0.0,1.6,85,0.00,,OVC240,0.00,VWS V14.01,2013-04-29 14:50:00,
2013-04-29 09:57:00,65.7,59.3,29.26,SE,135,1.1,2.0,80,0.00,,OVC240,0.00,VWS V14.01,2013-04-29 14:57:00,
2013-04-29 10:00:00,65.7,59.3,29.26,SE,135,1.1,2.0,80,0.00,,OVC240,0.00,VWS V14.01,2013-04-29 15:00:00,
2013-04-29 10:07:00,71.2,63.7,29.26,SSW,202,2.2,3.4,77,0.00,,OVC240,0.00,VWS V14.01,2013-04-29 15:07:00,
2013-04-29 10:10:00,71.2,63.7,29.26,SSW,202,2.2,3.4,77,0.00,,OVC240,0.00,VWS V14.01,2013-04-29 15:10:00,
2013-04-29 10:17:00,71.8,57.2,29.29,SE,135,5.4,5.4,60,0.00,,OVC240,0.00,VWS V14.01,2013-04-29 15:17:00,
2013-04-29 10:20:00,72.7,59.8,29.29,SW,225,2.9,3.1,64,0.00,,OVC240,0.00,VWS V14.01,2013-04-29 15:20:00,
2013-04-29 10:27:00,73.4,59.6,29.26,SE,135,5.8,5.8,62,0.00,,OVC240,0.00,VWS V14.01,2013-04-29 15:27:00,
2013-04-29 10:30:00,73.4,59.6,29.26,SE,135,5.8,5.8,62,0.00,,OVC240,0.00,VWS V14.01,2013-04-29 15:30:00,
2013-04-29 10:37:00,75.0,57.8,29.26,NE,45,5.8,5.8,55,0.00,,OVC240,0.00,VWS V14.01,2013-04-29 15:37:00,
2013-04-29 10:40:00,75.0,57.8,29.26,NE,45,5.8,5.8,55,0.00,,OVC240,0.00,VWS V14.01,2013-04-29 15:40:00,
2013-04-29 10:48:00,72.5,55.4,29.29,SSW,202,3.1,3.1,55,0.00,,OVC240,0.00,VWS V14.01,2013-04-29 15:48:00,
2013-04-29 10:50:00,72.5,55.4,29.29,SSW,202,3.1,3.1,55,0.00,,OVC240,0.00,VWS V14.01,2013-04-29 15:50:00,
2013-04-29 10:57:00,77.4,61.0,29.26,SE,135,3.6,3.6,57,0.00,,OVC240,0.00,VWS V14.01,2013-04-29 15:57:00,
2013-04-29 11:00:00,77.4,61.0,29.26,SE,135,3.6,3.6,57,0.00,,OVC240,0.00,VWS V14.01,2013-04-29 16:00:00,
2013-04-29 11:08:00,76.3,56.3,29.26,NE,45,2.7,2.7,50,0.00,,OVC240,0.00,VWS V14.01,2013-04-29 16:08:00,
2013-04-29 11:10:00,76.3,56.3,29.26,NE,45,2.7,2.7,50,0.00,,OVC240,0.00,VWS V14.01,2013-04-29 16:10:00,
2013-04-29 11:17:00,76.5,55.3,29.29,SE,135,2.9,2.9,48,0.00,,OVC240,0.00,VWS V14.01,2013-04-29 16:17:00,
2013-04-29 11:20:00,76.5,55.3,29.29,SE,135,2.9,2.9,48,0.00,,OVC240,0.00,VWS V14.01,2013-04-29 16:20:00,
2013-04-29 11:38:00,77.0,55.8,29.29,SE,135,6.5,6.5,48,0.00,,OVC240,0.00,VWS V14.01,2013-04-29 16:38:00,
2013-04-29 11:40:00,77.0,55.8,29.29,SE,135,6.5,6.5,48,0.00,,OVC240,0.00,VWS V14.01,2013-04-29 16:40:00,
2013-04-29 11:47:00,74.3,53.9,29.26,WSW,248,2.7,4.0,49,0.00,,OVC240,0.00,VWS V14.01,2013-04-29 16:47:00,
2013-04-29 11:50:00,74.3,53.9,29.26,WSW,248,2.7,4.0,49,0.00,,OVC240,0.00,VWS V14.01,2013-04-29 16:50:00,
2013-04-29 12:08:00,72.0,54.4,29.26,West,270,2.5,5.6,54,0.00,,OVC240,0.00,VWS V14.01,2013-04-29 17:08:00,
2013-04-29 12:10:00,72.0,54.4,29.26,West,270,2.5,5.6,54,0.00,,OVC240,0.00,VWS V14.01,2013-04-29 17:10:00,
2013-04-29 12:18:00,73.0,56.4,29.26,ESE,112,4.9,4.9,56,0.00,,OVC240,0.00,VWS V14.01,2013-04-29 17:18:00,
2013-04-29 12:20:00,73.0,56.4,29.26,ESE,112,4.9,4.9,56,0.00,,OVC240,0.00,VWS V14.01,2013-04-29 17:20:00,
2013-04-29 12:27:00,74.3,57.6,29.23,South,180,4.0,4.9,56,0.00,,OVC240,0.00,VWS V14.01,2013-04-29 17:27:00,
2013-04-29 12:30:00,74.3,57.6,29.23,South,180,4.0,4.9,56,0.00,,OVC240,0.00,VWS V14.01,2013-04-29 17:30:00,
2013-04-29 12:37:00,76.8,57.9,29.23,WNW,292,2.5,2.5,52,0.00,,OVC240,0.00,VWS V14.01,2013-04-29 17:37:00,
2013-04-29 12:40:00,76.8,57.9,29.23,WNW,292,2.5,2.5,52,0.00,,OVC240,0.00,VWS V14.01,2013-04-29 17:40:00,
2013-04-29 12:47:00,75.6,55.6,29.26,SE,135,0.9,0.9,50,0.00,,OVC240,0.00,VWS V14.01,2013-04-29 17:47:00,
2013-04-29 12:50:00,75.6,55.6,29.26,SE,135,0.9,0.9,50,0.00,,OVC240,0.00,VWS V14.01,2013-04-29 17:50:00,
2013-04-29 12:57:00,75.4,54.9,29.26,West,270,0.0,0.0,49,0.00,,OVC240,0.00,VWS V14.01,2013-04-29 17:57:00,
2013-04-29 13:00:00,75.4,54.9,29.26,West,270,0.0,0.0,49,0.00,,OVC240,0.00,VWS V14.01,2013-04-29 18:00:00,
2013-04-29 13:08:00,74.1,54.3,29.26,WSW,248,2.7,4.0,50,0.00,,OVC240,0.00,VWS V14.01,2013-04-29 18:08:00,
2013-04-29 13:10:00,74.1,54.3,29.26,WSW,248,2.7,4.0,50,0.00,,OVC240,0.00,VWS V14.01,2013-04-29 18:10:00,
2013-04-29 13:18:00,74.3,55.0,29.26,SW,225,3.4,3.4,51,0.00,,OVC240,0.00,VWS V14.01,2013-04-29 18:18:00,
2013-04-29 13:20:00,74.3,55.0,29.26,SW,225,3.4,3.4,51,0.00,,OVC240,0.00,VWS V14.01,2013-04-29 18:20:00,
2013-04-29 13:27:00,74.8,56.0,29.26,SE,135,3.4,4.3,52,0.00,,OVC240,0.00,VWS V14.01,2013-04-29 18:27:00,
2013-04-29 13:30:00,74.8,56.0,29.26,SE,135,3.4,4.3,52,0.00,,OVC240,0.00,VWS V14.01,2013-04-29 18:30:00,
2013-04-29 13:38:00,74.1,54.3,29.26,SE,135,3.1,3.8,50,0.00,,OVC240,0.00,VWS V14.01,2013-04-29 18:38:00,
2013-04-29 13:40:00,74.1,54.3,29.26,SE,135,3.1,3.8,50,0.00,,OVC240,0.00,VWS V14.01,2013-04-29 18:40:00,
2013-04-29 13:47:00,73.8,54.0,29.26,WSW,248,3.8,3.8,50,0.00,,OVC240,0.00,VWS V14.01,2013-04-29 18:47:00,
2013-04-29 13:50:00,73.8,54.0,29.26,WSW,248,3.8,3.8,50,0.00,,OVC240,0.00,VWS V14.01,2013-04-29 18:50:00,
2013-04-29 13:57:00,74.7,54.2,29.26,SE,135,4.9,5.6,49,0.00,,OVC240,0.00,VWS V14.01,2013-04-29 18:57:00,
2013-04-29 14:00:00,74.7,54.2,29.26,SE,135,4.9,5.6,49,0.00,,OVC240,0.00,VWS V14.01,2013-04-29 19:00:00,
2013-04-29 14:08:00,75.7,54.7,29.26,SE,135,1.3,1.3,48,0.00,,OVC240,0.00,VWS V14.01,2013-04-29 19:08:00,
2013-04-29 14:10:00,75.7,54.7,29.26,SE,135,1.3,1.3,48,0.00,,OVC240,0.00,VWS V14.01,2013-04-29 19:10:00,
2013-04-29 14:17:00,75.2,54.2,29.23,SSE,158,3.1,3.8,48,0.00,,OVC240,0.00,VWS V14.01,2013-04-29 19:17:00,
2013-04-29 14:20:00,75.2,54.2,29.23,SSE,158,3.1,3.8,48,0.00,,OVC240,0.00,VWS V14.01,2013-04-29 19:20:00,
2013-04-29 14:27:00,74.3,53.9,29.23,SE,135,3.6,4.0,49,0.00,,OVC240,0.00,VWS V14.01,2013-04-29 19:27:00,
2013-04-29 14:30:00,74.3,53.9,29.23,SE,135,3.6,4.0,49,0.00,,OVC240,0.00,VWS V14.01,2013-04-29 19:30:00,
2013-04-29 14:38:00,75.2,54.8,29.23,ESE,112,4.7,4.9,49,0.00,,OVC240,0.00,VWS V14.01,2013-04-29 19:38:00,
2013-04-29 14:40:00,75.2,54.8,29.23,ESE,112,4.7,4.9,49,0.00,,OVC240,0.00,VWS V14.01,2013-04-29 19:40:00,
2013-04-29 14:57:00,79.0,55.8,29.23,SE,135,5.8,6.5,45,0.00,,OVC240,0.00,VWS V14.01,2013-04-29 19:57:00,
2013-04-29 15:00:00,79.0,55.8,29.23,SE,135,5.8,6.5,45,0.00,,OVC240,0.00,VWS V14.01,2013-04-29 20:00:00,
2013-04-29 15:07:00,77.9,55.5,29.23,NW,315,4.7,4.7,46,0.00,,OVC240,0.00,VWS V14.01,2013-04-29 20:07:00,
2013-04-29 15:10:00,77.9,55.5,29.23,NW,315,4.7,4.7,46,0.00,,OVC240,0.00,VWS V14.01,2013-04-29 20:10:00,
2013-04-29 15:18:00,77.0,54.7,29.23,WSW,248,1.6,3.4,46,0.00,,OVC240,0.00,VWS V14.01,2013-04-29 20:18:00,
2013-04-29 15:20:00,77.0,54.7,29.23,WSW,248,1.6,3.4,46,0.00,,OVC240,0.00,VWS V14.01,2013-04-29 20:20:00,
2013-04-29 15:27:00,75.7,52.9,29.20,SSE,158,1.3,2.2,45,0.00,,OVC240,0.00,VWS V14.01,2013-04-29 20:27:00,
2013-04-29 15:30:00,75.7,52.9,29.20,SSE,158,1.3,2.2,45,0.00,,OVC240,0.00,VWS V14.01,2013-04-29 20:30:00,
2013-04-29 15:37:00,77.7,54.7,29.20,SE,135,6.5,6.5,45,0.00,,OVC240,0.00,VWS V14.01,2013-04-29 20:37:00,
2013-04-29 15:40:00,77.7,54.7,29.20,SE,135,6.5,6.5,45,0.00,,OVC240,0.00,VWS V14.01,2013-04-29 20:40:00,
2013-04-29 15:47:00,81.1,56.5,29.20,SW,225,3.4,3.4,43,0.00,,OVC240,0.00,VWS V14.01,2013-04-29 20:47:00,
2013-04-29 15:50:00,81.1,56.5,29.20,SW,225,3.4,3.4,43,0.00,,OVC240,0.00,VWS V14.01,2013-04-29 20:50:00,
2013-04-29 15:57:00,79.3,54.9,29.20,SE,135,2.7,2.7,43,0.00,,OVC240,0.00,VWS V14.01,2013-04-29 20:57:00,
2013-04-29 16:00:00,79.3,54.9,29.20,SE,135,2.7,2.7,43,0.00,,OVC240,0.00,VWS V14.01,2013-04-29 21:00:00,
2013-04-29 16:07:00,81.5,55.5,29.20,West,270,2.5,2.9,41,0.00,,OVC240,13.77,VWS V14.01,2013-04-29 21:07:00,
2013-04-29 16:10:00,81.5,55.6,29.20,West,270,2.5,2.9,41,0.00,,OVC240,13.77,VWS V14.01,2013-04-29 21:10:00,
2013-04-29 16:17:00,79.3,54.9,29.20,SE,135,1.3,2.2,43,0.00,,OVC240,13.77,VWS V14.01,2013-04-29 21:17:00,
2013-04-29 16:20:00,79.3,54.9,29.20,SE,135,1.3,2.2,43,0.00,,OVC240,13.77,VWS V14.01,2013-04-29 21:20:00,
2013-04-29 16:27:00,77.0,52.8,29.20,WSW,248,2.7,3.4,43,0.00,,OVC240,13.77,VWS V14.01,2013-04-29 21:27:00,
2013-04-29 16:30:00,77.0,52.8,29.20,WSW,248,2.7,3.4,43,0.00,,OVC240,13.77,VWS V14.01,2013-04-29 21:30:00,
2013-04-29 16:38:00,73.4,51.4,29.20,WNW,292,1.1,1.1,46,0.00,,OVC240,13.77,VWS V14.01,2013-04-29 21:38:00,
2013-04-29 16:40:00,73.4,51.4,29.20,WNW,292,1.1,1.1,46,0.00,,OVC240,13.77,VWS V14.01,2013-04-29 21:40:00,
2013-04-29 16:47:00,75.7,54.1,29.20,SE,135,3.8,3.8,47,0.00,,OVC240,13.77,VWS V14.01,2013-04-29 21:47:00,
2013-04-29 16:50:00,75.7,54.1,29.20,SE,135,3.8,3.8,47,0.00,,OVC240,13.77,VWS V14.01,2013-04-29 21:50:00,
2013-04-29 16:57:00,77.5,55.7,29.20,West,270,2.0,2.0,47,0.00,,OVC240,13.77,VWS V14.01,2013-04-29 21:57:00,
2013-04-29 17:00:00,77.5,55.7,29.20,West,270,2.0,2.0,47,0.00,,OVC240,13.77,VWS V14.01,2013-04-29 22:00:00,
2013-04-29 17:08:00,75.9,53.7,29.20,West,270,2.5,2.5,46,0.00,,OVC240,13.77,VWS V14.01,2013-04-29 22:08:00,
2013-04-29 17:10:00,75.9,53.7,29.20,West,270,2.5,2.5,46,0.00,,OVC240,13.77,VWS V14.01,2013-04-29 22:10:00,
2013-04-29 17:17:00,72.9,54.2,29.20,WNW,292,1.6,1.6,52,0.00,,OVC240,13.77,VWS V14.01,2013-04-29 22:17:00,
2013-04-29 17:20:00,72.9,54.2,29.20,WNW,292,1.6,1.6,52,0.00,,OVC240,13.77,VWS V14.01,2013-04-29 22:20:00,
2013-04-29 17:27:00,75.0,59.7,29.20,NW,315,2.0,2.0,59,0.00,,OVC240,13.77,VWS V14.01,2013-04-29 22:27:00,
2013-04-29 17:30:00,75.0,59.7,29.20,NW,315,2.0,2.0,59,0.00,,OVC240,13.77,VWS V14.01,2013-04-29 22:30:00,
2013-04-29 17:37:00,76.8,60.0,29.20,NW,315,0.0,0.0,56,0.00,,OVC240,13.77,VWS V14.01,2013-04-29 22:37:00,
2013-04-29 17:40:00,76.8,60.0,29.20,NW,315,0.0,0.0,56,0.00,,OVC240,13.77,VWS V14.01,2013-04-29 22:40:00,
2013-04-29 17:47:00,76.8,57.3,29.20,NW,315,0.0,1.1,51,0.00,,OVC240,13.77,VWS V14.01,2013-04-29 22:47:00,
2013-04-29 17:50:00,76.8,57.3,29.20,NW,315,0.0,1.1,51,0.00,,OVC240,13.77,VWS V14.01,2013-04-29 22:50:00,
2013-04-29 17:57:00,74.3,57.1,29.20,NW,315,1.3,1.3,55,0.00,,OVC240,13.77,VWS V14.01,2013-04-29 22:57:00,
2013-04-29 18:00:00,74.3,57.1,29.20,NW,315,1.3,1.3,55,0.00,,OVC240,13.77,VWS V14.01,2013-04-29 23:00:00,
2013-04-29 18:08:00,70.7,56.2,29.20,NW,315,2.0,2.0,60,0.00,,OVC240,13.77,VWS V14.01,2013-04-29 23:08:00,
2013-04-29 18:10:00,70.7,56.2,29.20,NW,315,2.0,2.0,60,0.00,,OVC240,13.77,VWS V14.01,2013-04-29 23:10:00,
2013-04-29 18:18:00,67.3,56.0,29.17,NW,315,2.5,2.5,67,0.00,,OVC240,13.77,VWS V14.01,2013-04-29 23:18:00,
2013-04-29 18:20:00,67.3,56.0,29.17,NW,315,2.5,2.5,67,0.00,,OVC240,13.77,VWS V14.01,2013-04-29 23:20:00,
2013-04-29 18:27:00,64.8,56.3,29.17,NW,315,1.3,1.6,74,0.00,,OVC240,13.77,VWS V14.01,2013-04-29 23:27:00,
2013-04-29 18:30:00,64.8,56.3,29.17,NW,315,1.3,1.6,74,0.00,,OVC240,13.77,VWS V14.01,2013-04-29 23:30:00,
2013-04-29 18:57:00,61.9,57.0,29.17,NW,315,2.5,3.1,84,0.00,,OVC240,13.77,VWS V14.01,2013-04-29 23:57:00,
2013-04-29 19:00:00,61.9,57.0,29.17,NW,315,2.5,3.1,84,0.00,,OVC240,13.77,VWS V14.01,2013-04-30 00:00:00,
2013-04-29 19:07:00,61.5,57.3,29.17,NNW,338,2.2,2.7,86,0.00,,OVC240,13.77,VWS V14.01,2013-04-30 00:07:00,
2013-04-29 19:10:00,61.5,57.3,29.17,NNW,338,2.2,2.7,86,0.00,,OVC240,13.77,VWS V14.01,2013-04-30 00:10:00,
2013-04-29 19:17:00,61.0,56.8,29.17,WNW,292,0.0,0.0,86,0.00,,OVC240,13.77,VWS V14.01,2013-04-30 00:17:00,
2013-04-29 19:20:00,61.0,56.8,29.17,WNW,292,0.0,0.0,86,0.00,,OVC240,13.77,VWS V14.01,2013-04-30 00:20:00,
2013-04-29 19:27:00,60.3,56.4,29.20,NW,315,1.3,1.3,87,0.00,,OVC240,13.77,VWS V14.01,2013-04-30 00:27:00,
2013-04-29 19:30:00,60.3,56.4,29.20,NW,315,1.3,1.3,87,0.00,,OVC240,13.77,VWS V14.01,2013-04-30 00:30:00,
2013-04-29 19:38:00,59.5,56.0,29.20,NW,315,1.1,1.1,88,0.00,,OVC240,13.77,VWS V14.01,2013-04-30 00:38:00,
2013-04-29 19:40:00,59.5,56.0,29.20,NW,315,1.1,1.1,88,0.00,,OVC240,13.77,VWS V14.01,2013-04-30 00:40:00,
2013-04-29 19:47:00,59.2,56.0,29.20,NW,315,0.0,0.0,89,0.00,,OVC240,13.77,VWS V14.01,2013-04-30 00:47:00,
2013-04-29 19:50:00,59.2,55.9,29.20,NW,315,0.0,0.0,89,0.00,,OVC240,13.77,VWS V14.01,2013-04-30 00:50:00,
2013-04-29 19:57:00,58.8,55.9,29.20,NW,315,1.1,1.3,90,0.00,,OVC240,13.77,VWS V14.01,2013-04-30 00:57:00,
2013-04-29 20:00:00,58.8,55.9,29.20,NW,315,1.1,1.3,90,0.00,,OVC240,13.77,VWS V14.01,2013-04-30 01:00:00,
2013-04-29 20:18:00,58.3,55.4,29.20,NW,315,0.0,0.9,90,0.00,,OVC240,13.77,VWS V14.01,2013-04-30 01:18:00,
2013-04-29 20:20:00,58.3,55.4,29.20,NW,315,0.0,0.9,90,0.00,,OVC240,13.77,VWS V14.01,2013-04-30 01:20:00,
2013-04-29 20:28:00,58.1,55.2,29.17,NW,315,0.0,0.0,90,0.00,,OVC240,13.77,VWS V14.01,2013-04-30 01:28:00,
2013-04-29 20:30:00,58.1,55.2,29.17,NW,315,0.0,0.0,90,0.00,,OVC240,13.77,VWS V14.01,2013-04-30 01:30:00,
2013-04-29 20:38:00,57.9,55.3,29.17,NW,315,0.0,0.0,91,0.00,,OVC240,13.77,VWS V14.01,2013-04-30 01:38:00,
2013-04-29 20:40:00,57.9,55.3,29.17,NW,315,0.0,0.0,91,0.00,,OVC240,13.77,VWS V14.01,2013-04-30 01:40:00,
2013-04-29 20:47:00,57.7,54.8,29.20,NW,315,0.0,0.0,90,0.00,,OVC240,13.77,VWS V14.01,2013-04-30 01:47:00,
2013-04-29 20:50:00,57.7,54.8,29.20,NW,315,0.0,0.0,90,0.00,,OVC240,13.77,VWS V14.01,2013-04-30 01:50:00,
2013-04-29 20:57:00,57.6,55.0,29.23,NW,315,0.0,0.0,91,0.00,,OVC240,13.77,VWS V14.01,2013-04-30 01:57:00,
2013-04-29 21:00:00,57.6,55.0,29.23,NW,315,0.0,0.0,91,0.00,,OVC240,13.77,VWS V14.01,2013-04-30 02:00:00,
2013-04-29 21:17:00,56.7,54.4,29.23,NW,315,0.0,0.0,92,0.00,,OVC240,13.77,VWS V14.01,2013-04-30 02:17:00,
2013-04-29 21:20:00,56.7,54.4,29.23,NW,315,0.0,0.0,92,0.00,,OVC240,13.77,VWS V14.01,2013-04-30 02:20:00,
2013-04-29 21:27:00,56.7,54.7,29.23,NW,315,0.0,0.0,93,0.00,,OVC240,13.77,VWS V14.01,2013-04-30 02:27:00,
2013-04-29 21:30:00,56.7,54.7,29.23,NW,315,0.0,0.0,93,0.00,,OVC240,13.77,VWS V14.01,2013-04-30 02:30:00,
2013-04-29 21:38:00,56.3,54.3,29.23,NW,315,0.0,0.0,93,0.00,,OVC240,13.77,VWS V14.01,2013-04-30 02:38:00,
2013-04-29 21:40:00,56.3,54.3,29.23,NW,315,0.0,0.0,93,0.00,,OVC240,13.77,VWS V14.01,2013-04-30 02:40:00,
2013-04-29 21:47:00,56.3,54.3,29.23,NW,315,0.0,0.0,93,0.00,,OVC240,13.77,VWS V14.01,2013-04-30 02:47:00,
2013-04-29 21:50:00,56.3,54.3,29.23,NW,315,0.0,0.0,93,0.00,,OVC240,13.77,VWS V14.01,2013-04-30 02:50:00,
2013-04-29 21:57:00,56.5,54.8,29.23,NW,315,0.0,0.0,94,0.00,,OVC240,13.77,VWS V14.01,2013-04-30 02:57:00,
2013-04-29 22:00:00,56.5,54.8,29.23,NW,315,0.0,0.0,94,0.00,,OVC240,13.77,VWS V14.01,2013-04-30 03:00:00,
2013-04-29 22:08:00,56.1,54.4,29.23,NW,315,0.0,0.0,94,0.00,,OVC240,13.77,VWS V14.01,2013-04-30 03:08:00,
2013-04-29 22:10:00,56.1,54.4,29.23,NW,315,0.0,0.0,94,0.00,,OVC240,13.77,VWS V14.01,2013-04-30 03:10:00,
2013-04-29 22:17:00,56.1,54.4,29.26,NW,315,0.0,0.0,94,0.00,,OVC240,13.77,VWS V14.01,2013-04-30 03:17:00,
2013-04-29 22:20:00,56.1,54.4,29.26,NW,315,0.0,0.0,94,0.00,,OVC240,13.77,VWS V14.01,2013-04-30 03:20:00,
2013-04-29 22:28:00,55.9,54.5,29.23,NW,315,0.0,0.0,95,0.00,,OVC240,13.77,VWS V14.01,2013-04-30 03:28:00,
2013-04-29 22:30:00,55.9,54.5,29.23,NW,315,0.0,0.0,95,0.00,,OVC240,13.77,VWS V14.01,2013-04-30 03:30:00,
2013-04-29 22:37:00,55.6,54.2,29.23,NW,315,0.0,0.0,95,0.00,,OVC240,13.77,VWS V14.01,2013-04-30 03:37:00,
2013-04-29 22:40:00,55.6,54.2,29.23,NW,315,0.0,0.0,95,0.00,,OVC240,13.77,VWS V14.01,2013-04-30 03:40:00,
2013-04-29 22:48:00,54.9,53.5,29.23,NW,315,0.0,0.0,95,0.00,,OVC240,13.77,VWS V14.01,2013-04-30 03:48:00,
2013-04-29 22:50:00,54.9,53.5,29.23,NW,315,0.0,0.0,95,0.00,,OVC240,13.77,VWS V14.01,2013-04-30 03:50:00,
2013-04-29 22:58:00,54.5,53.1,29.23,NW,315,1.1,1.1,95,0.00,,OVC240,13.77,VWS V14.01,2013-04-30 03:58:00,
2013-04-29 23:00:00,54.5,53.1,29.23,NW,315,1.1,1.1,95,0.00,,OVC240,13.77,VWS V14.01,2013-04-30 04:00:00,
2013-04-29 23:07:00,54.5,53.1,29.23,NW,315,0.0,0.0,95,0.00,,OVC240,13.77,VWS V14.01,2013-04-30 04:07:00,
2013-04-29 23:10:00,54.5,53.1,29.23,NW,315,0.0,0.0,95,0.00,,OVC240,13.77,VWS V14.01,2013-04-30 04:10:00,
2013-04-29 23:18:00,54.3,53.2,29.23,NW,315,0.0,0.0,96,0.00,,OVC240,13.77,VWS V14.01,2013-04-30 04:18:00,
2013-04-29 23:20:00,54.3,53.2,29.23,NW,315,0.0,0.0,96,0.00,,OVC240,13.77,VWS V14.01,2013-04-30 04:20:00,
2013-04-29 23:27:00,53.8,52.7,29.23,NW,315,0.0,0.0,96,0.00,,OVC240,13.77,VWS V14.01,2013-04-30 04:27:00,
2013-04-29 23:30:00,53.8,52.7,29.23,NW,315,0.0,0.0,96,0.00,,OVC240,13.77,VWS V14.01,2013-04-30 04:30:00,
2013-04-29 23:37:00,53.6,52.5,29.23,NW,315,0.0,0.0,96,0.00,,OVC240,13.77,VWS V14.01,2013-04-30 04:37:00,
2013-04-29 23:40:00,53.6,52.5,29.23,NW,315,0.0,0.0,96,0.00,,OVC240,13.77,VWS V14.01,2013-04-30 04:40:00,
2013-04-29 23:47:00,53.4,52.3,29.23,NW,315,1.6,1.6,96,0.00,,OVC240,13.77,VWS V14.01,2013-04-30 04:47:00,
2013-04-29 23:50:00,53.4,52.3,29.23,NW,315,1.6,1.6,96,0.00,,OVC240,13.77,VWS V14.01,2013-04-30 04:50:00,